Wind_Speed
17 17 16 15 14 14 13 13 12 12 12 11 11 11 11 11 10 10 11 11 11 10 10 10 10 10 10 10 9 9 9 9 9 9 9 9 9 9 9 9 9 9 9
20 19 18 17 17 16 15 15 14 13 13 13 13 13 12 12 12 12 12 12 12 11 11 11 11 11 11 11 11 11 11 10 10 10 10 10 10 10 10 10 10 11 11
21 20 19 19 19 18 17 17 16 16 15 15 14 14 14 13 13 13 13 13 13 12 12 12 11 11 11 11 12 12 12 12 12 12 12 12 12 12 12 12 12 12 13
23 22 22 21 20 20 19 19 18 18 17 16 16 16 15 15 14 14 14 14 14 13 13 13 13 12 12 13 13 13 13 13 13 13 13 13 13 13 13 13 14 14 14
25 24 23 23 22 22 21 21 20 19 19 18 17 17 17 16 15 15 15 15 15 14 14 14 14 14 14 14 15 15 15 15 15 15 15 14 14 14 15 15 15 15 15
26 26 25 24 24 23 23 22 21 20 20 19 19 18 18 17 17 16 16 16 16 15 15 15 15 15 16 16 16 16 16 16 16 16 16 16 16 16 16 16 17 17 17
28 27 26 26 25 25 24 24 23 22 21 20 20 20 19 19 18 18 18 17 17 17 17 17 16 17 17 17 17 17 17 17 17 17 18 18 18 18 18 18 18 19 19
29 28 27 27 26 26 26 25 24 24 23 22 22 21 21 20 20 19 19 19 19 19 19 18 18 18 18 18 18 18 18 19 18 19 19 19 20 20 20 20 20 20 20
30 29 28 28 27 27 26 26 26 25 24 24 24 23 22 22 21 21 20 20 20 20 20 19 19 19 19 19 19 19 19 19 19 20 20 21 21 21 22 22 22 21 21
32 31 30 29 28 28 27 27 26 26 26 25 25 25 24 24 23 22 22 22 21 22 21 21 21 21 21 20 20 20 20 20 20 21 21 22 22 23 23 23 23 23 23
32 33 32 30 30 29 29 28 28 28 28 28 27 27 26 26 25 24 23 23 23 23 23 22 22 22 22 22 22 22 22 21 21 22 23 23 24 24 24 24 24 24 25
33 33 32 32 31 30 30 30 30 30 30 29 29 28 28 27 27 26 25 25 24 24 24 23 23 23 24 24 24 24 24 23 23 24 24 25 25 25 25 25 25 26 26
33 33 33 32 32 32 31 31 32 31 31 30 30 30 29 29 28 27 26 26 26 25 25 26 25 26 26 26 26 26 26 25 25 25 25 26 26 26 26 26 26 26 27
32 34 34 33 33 33 32 33 33 33 32 32 31 31 31 30 29 29 28 28 28 27 27 28 28 28 28 28 28 28 27 27 27 27 27 27 27 27 27 27 27 28 28
32 35 36 35 34 34 33 32 33 34 34 34 33 33 32 31 31 30 30 29 29 29 29 30 30 30 30 29 29 29 29 29 30 29 29 28 28 27 28 28 29 29 29
33 35 36 36 35 35 35 34 34 35 35 35 34 33 33 33 33 33 33 33 33 32 32 32 32 32 31 31 31 31 30 31 31 31 30 30 29 30 30 30 31 31 31
33 35 36 36 36 36 34 33 35 35 35 34 34 34 33 34 33 34 34 35 35 33 33 34 34 34 33 33 33 33 33 33 34 33 33 33 32 32 33 33 33 33 33
32 35 37 37 36 36 35 33 34 35 35 35 35 35 34 34 35 35 36 36 35 35 35 35 35 34 35 35 35 35 35 35 36 35 35 35 35 35 35 35 35 35 35
30 34 36 36 36 35 37 34 33 35 36 36 36 36 36 35 36 37 37 37 37 37 37 36 36 35 35 36 36 36 36 36 36 37 37 38 38 37 37 37 37 37 37
29 32 34 35 35 35 36 34 33 34 35 36 36 36 37 37 36 37 38 38 38 38 38 37 36 37 36 37 37 37 37 38 38 38 38 39 39 38 39 39 39 39 39
29 30 31 33 33 33 33 34 33 34 35 36 36 37 38 38 38 38 37 38 39 39 39 38 38 37 37 38 38 38 38 39 39 39 39 39 39 39 40 40 40 40 40
27 29 31 31 32 32 32 33 33 33 35 35 36 36 37 38 39 39 39 39 38 38 39 39 39 37 38 38 38 38 38 39 40 40 40 40 41 41 41 41 41 42 42
27 28 29 29 31 32 33 33 33 33 35 36 37 37 37 38 39 39 40 39 39 40 40 40 39 38 38 38 38 38 38 39 39 40 40 41 41 42 42 42 42 42 43
26 28 29 29 30 31 33 34 34 33 34 35 36 37 38 39 40 40 40 40 40 40 41 41 41 41 40 40 40 40 40 40 40 40 40 41 42 43 43 43 43 44 44
26 26 27 28 29 31 32 33 33 33 34 35 36 37 38 38 39 40 40 41 41 40 41 42 43 43 42 42 41 42 43 43 43 43 42 42 43 43 44 44 44 45 45
25 26 27 27 28 30 32 33 33 33 34 35 35 36 37 38 39 40 40 40 41 41 42 42 43 43 43 42 42 42 43 44 44 44 44 43 43 44 45 45 46 46 46
Wind_Direction
232 229 226 227 228 229 231 233 235 238 242 244 247 248 248 249 251 253 254 254 256 259 261 262 262 263 265 267 269 271 273 275 278 279 278 277 276 276 277 277 279 279 280
231 228 228 229 231 232 233 236 238 240 244 246 248 249 250 251 253 255 255 254 255 258 261 262 262 264 266 269 271 272 274 275 278 280 280 279 277 275 274 276 278 280 281
234 231 230 232 233 234 236 238 240 242 245 247 249 250 251 253 255 256 256 255 256 259 261 262 262 265 268 270 272 273 273 274 276 276 276 277 277 276 275 276 278 279 281
237 235 233 234 235 236 237 238 240 243 245 247 248 250 251 253 256 256 255 255 257 260 261 262 264 266 268 270 272 273 274 274 274 274 274 275 276 276 277 278 279 279 281
238 237 235 235 235 237 237 238 240 243 245 245 247 249 251 252 254 255 254 255 257 259 261 264 267 268 269 271 273 274 274 274 273 273 274 275 276 277 277 279 280 280 280
235 237 237 237 236 237 237 238 241 243 244 246 246 248 249 251 253 254 255 256 257 259 262 265 269 270 271 273 275 276 275 274 272 272 274 275 275 276 276 277 277 278 279
234 234 236 238 238 237 237 239 241 242 244 246 247 248 249 251 252 253 255 257 258 260 263 266 269 272 273 274 276 277 276 275 273 273 274 275 276 276 276 276 277 277 277
233 233 235 236 237 237 237 238 240 241 243 245 247 248 249 251 252 253 255 257 259 261 263 265 268 271 274 275 277 277 276 275 273 274 274 275 275 276 276 277 277 277 277
230 231 233 233 234 236 236 238 239 241 242 244 247 248 249 251 253 255 257 258 259 261 263 266 268 271 274 276 277 276 276 275 274 274 275 275 275 276 276 277 277 277 276
229 229 229 231 232 234 236 238 239 241 242 244 246 248 250 251 253 254 257 258 259 261 263 265 268 271 273 275 276 276 275 275 276 276 276 276 276 276 276 277 277 276 276
229 228 229 231 232 234 237 239 241 242 243 245 246 247 249 251 252 254 256 257 259 261 263 265 267 270 272 274 276 276 275 275 276 277 277 277 277 277 276 277 277 277 276
229 227 229 232 234 235 237 239 242 243 244 245 247 247 249 250 252 253 255 257 259 261 263 264 267 270 272 274 275 276 275 275 276 278 278 278 277 277 277 277 278 278 278
230 228 229 233 236 236 238 240 242 243 245 247 248 247 248 250 251 253 255 257 258 261 264 265 267 270 272 273 274 275 275 275 276 278 279 278 277 277 277 277 278 279 280
231 229 230 232 236 236 237 240 242 244 247 248 248 248 249 250 251 253 255 257 258 261 264 266 267 270 272 273 273 274 274 275 276 277 278 278 278 277 276 277 278 279 280
233 231 230 232 236 237 238 242 243 245 247 248 249 249 249 250 251 252 254 257 260 262 264 266 267 269 271 272 273 274 274 275 276 277 277 276 276 276 276 277 278 279 280
234 233 232 233 235 238 240 243 243 245 246 247 249 250 250 250 252 252 255 258 260 263 266 266 268 270 271 271 272 272 273 274 275 276 276 275 275 276 277 278 278 278 279
236 235 234 235 236 238 241 245 244 245 245 246 247 248 251 252 254 254 255 258 259 261 264 266 268 270 271 271 271 271 272 274 275 275 275 274 275 276 277 277 278 279 279
238 236 235 236 237 239 241 247 248 246 245 246 247 249 251 252 253 255 256 258 259 261 264 266 267 269 270 270 271 272 272 274 274 274 274 274 275 276 276 277 278 278 279
242 239 239 238 239 242 244 250 250 249 247 246 248 250 251 253 255 255 256 258 259 261 264 266 266 268 270 271 271 272 272 273 273 273 273 274 275 275 276 276 277 278 279
244 241 241 240 242 245 248 250 251 250 248 247 248 249 251 254 256 257 257 259 260 261 263 265 266 268 270 272 272 272 272 272 273 273 273 274 274 275 276 276 276 278 279
246 243 244 243 243 245 247 249 250 248 247 247 248 250 252 254 255 258 260 261 261 261 263 265 267 269 270 271 272 271 271 271 272 272 272 272 273 274 276 276 277 277 278
247 245 245 244 244 244 246 248 247 248 248 249 249 251 252 254 255 257 260 262 263 263 265 265 267 270 271 271 272 272 272 272 273 273 273 272 273 274 276 277 277 277 279
249 248 247 246 245 246 247 249 248 250 251 250 251 253 254 256 257 260 261 261 263 265 265 266 268 270 272 272 272 272 272 272 273 273 274 274 274 275 276 277 278 278 279
249 248 248 248 248 248 250 251 251 252 252 252 254 255 256 257 259 260 261 261 263 265 265 266 268 270 272 273 273 273 273 273 273 273 273 274 274 274 275 277 278 279 279
250 250 250 251 252 251 253 252 252 255 255 256 256 257 258 259 260 261 262 263 264 266 267 268 269 271 272 272 274 274 274 274 274 274 274 274 275 275 275 276 278 279 279
253 252 253 255 255 255 256 255 255 257 258 258 259 259 259 260 261 262 263 264 265 267 269 270 271 271 272 272 274 275 276 274 275 275 275 275 275 275 276 277 278 278 278
Height
5857 5858 5860 5861 5862 5863 5864 5865 5866 5867 5868 5868 5869 5869 5870 5870 5871 5871 5871 5871 5871 5871 5871 5871 5871 5871 5871 5870 5870 5870 5870 5870 5869 5869 5868 5868 5867 5867 5866 5866 5865 5865 5865
5854 5855 5857 5858 5860 5861 5862 5863 5864 5865 5866 5866 5867 5868 5868 5868 5869 5869 5869 5869 5869 5869 5869 5869 5869 5869 5869 5869 5868 5868 5868 5868 5867 5867 5866 5866 5865 5865 5864 5864 5864 5863 5863
5850 5852 5853 5855 5857 5858 5859 5861 5862 5863 5864 5864 5865 5865 5866 5866 5867 5867 5867 5867 5867 5867 5867 5867 5867 5867 5867 5867 5866 5866 5866 5865 5865 5865 5864 5864 5863 5863 5862 5862 5861 5861 5860
5846 5848 5849 5851 5853 5855 5856 5857 5859 5860 5861 5862 5862 5863 5863 5864 5864 5864 5865 5865 5865 5865 5865 5865 5865 5865 5865 5864 5864 5864 5863 5863 5863 5862 5862 5861 5861 5860 5860 5859 5859 5858 5858
5841 5843 5845 5847 5849 5851 5852 5854 5855 5856 5857 5858 5859 5860 5861 5861 5862 5862 5862 5862 5863 5863 5863 5863 5863 5862 5862 5862 5861 5861 5861 5860 5860 5859 5859 5859 5858 5858 5857 5857 5856 5856 5855
5836 5838 5840 5842 5844 5846 5848 5850 5851 5852 5854 5855 5856 5857 5857 5858 5859 5859 5859 5860 5860 5860 5860 5860 5860 5860 5859 5859 5859 5858 5858 5857 5857 5856 5856 5856 5855 5855 5854 5854 5853 5853 5852
5830 5832 5835 5837 5839 5841 5843 5845 5847 5848 5850 5851 5852 5853 5854 5855 5855 5856 5856 5857 5857 5857 5857 5857 5857 5857 5856 5856 5855 5855 5854 5854 5853 5853 5853 5852 5852 5851 5851 5850 5850 5849 5848
5823 5826 5829 5831 5834 5836 5838 5840 5842 5844 5846 5847 5848 5849 5850 5851 5852 5852 5853 5853 5853 5854 5854 5854 5854 5853 5853 5852 5852 5851 5851 5850 5850 5850 5849 5848 5848 5848 5847 5846 5846 5845 5844
5817 5820 5823 5826 5828 5831 5833 5836 5838 5839 5841 5842 5844 5845 5846 5847 5848 5848 5849 5849 5849 5850 5850 5850 5850 5850 5849 5849 5848 5848 5847 5846 5846 5846 5845 5845 5844 5843 5843 5842 5841 5841 5840
5809 5813 5816 5819 5822 5825 5828 5830 5832 5834 5836 5837 5839 5840 5841 5842 5843 5844 5844 5845 5845 5846 5846 5846 5846 5846 5845 5845 5844 5844 5843 5842 5842 5841 5841 5840 5839 5839 5838 5838 5837 5836 5836
5802 5805 5809 5812 5816 5819 5822 5824 5826 5828 5830 5832 5833 5835 5836 5837 5838 5839 5840 5840 5841 5841 5841 5841 5841 5841 5841 5840 5840 5839 5839 5838 5838 5837 5836 5836 5835 5834 5833 5833 5832 5831 5830
5794 5798 5802 5806 5809 5812 5815 5817 5820 5822 5824 5826 5828 5829 5831 5832 5833 5834 5834 5835 5836 5836 5837 5837 5837 5837 5836 5836 5835 5835 5834 5833 5833 5832 5831 5830 5830 5829 5828 5827 5826 5826 5825
5787 5791 5795 5798 5801 5804 5807 5810 5813 5815 5818 5820 5821 5823 5824 5826 5827 5828 5829 5830 5830 5831 5831 5832 5832 5831 5831 5831 5830 5830 5829 5829 5828 5827 5826 5825 5824 5823 5822 5822 5821 5820 5819
5779 5783 5787 5791 5794 5797 5799 5802 5805 5808 5810 5812 5814 5816 5818 5819 5821 5822 5823 5824 5825 5825 5826 5826 5826 5826 5826 5825 5825 5824 5824 5823 5822 5821 5820 5819 5818 5817 5817 5816 5815 5814 5813
5771 5775 5779 5783 5787 5790 5792 5794 5797 5800 5803 5805 5807 5809 5811 5812 5814 5815 5817 5818 5819 5819 5819 5820 5820 5820 5819 5819 5819 5818 5817 5817 5816 5815 5814 5813 5812 5811 5810 5809 5808 5807 5806
5764 5767 5771 5775 5779 5782 5785 5787 5790 5792 5795 5797 5799 5802 5803 5805 5807 5808 5810 5811 5812 5812 5813 5813 5813 5813 5813 5812 5812 5811 5811 5810 5809 5808 5807 5807 5806 5805 5804 5803 5802 5801 5799
5756 5760 5764 5767 5771 5774 5777 5779 5781 5784 5786 5789 5791 5793 5795 5797 5799 5801 5802 5803 5804 5805 5805 5805 5805 5805 5805 5805 5805 5804 5803 5803 5802 5801 5800 5800 5799 5798 5797 5795 5794 5793 5792
5749 5753 5756 5759 5762 5766 5769 5771 5773 5775 5777 5780 5783 5785 5787 5789 5790 5792 5793 5795 5796 5796 5797 5797 5797 5797 5797 5797 5797 5796 5796 5795 5794 5793 5792 5792 5791 5790 5789 5787 5786 5785 5784
5742 5745 5748 5751 5755 5758 5761 5763 5764 5767 5769 5771 5774 5776 5778 5779 5781 5783 5784 5786 5787 5788 5788 5789 5788 5789 5789 5788 5788 5788 5787 5786 5785 5785 5784 5783 5782 5781 5780 5779 5778 5776 5775
5736 5738 5742 5745 5748 5750 5753 5754 5756 5758 5760 5762 5765 5767 5769 5770 5772 5773 5775 5776 5778 5779 5779 5779 5780 5780 5780 5779 5779 5779 5778 5777 5776 5776 5775 5774 5773 5772 5771 5770 5769 5767 5766
5729 5732 5735 5737 5740 5743 5745 5746 5748 5749 5751 5753 5755 5758 5760 5761 5763 5764 5766 5767 5768 5769 5770 5770 5770 5770 5770 5770 5770 5769 5769 5768 5767 5766 5765 5765 5764 5763 5761 5760 5759 5757 5756
5723 5725 5728 5730 5733 5735 5737 5738 5740 5741 5743 5744 5746 5748 5750 5752 5754 5755 5757 5758 5759 5759 5760 5761 5761 5760 5760 5760 5760 5760 5759 5759 5758 5757 5756 5755 5754 5753 5752 5751 5749 5748 5746
5717 5719 5721 5723 5725 5727 5729 5730 5732 5733 5735 5736 5738 5740 5741 5743 5744 5746 5747 5748 5749 5750 5750 5751 5751 5751 5751 5750 5750 5749 5749 5749 5749 5748 5746 5745 5744 5743 5742 5740 5739 5737 5736
5711 5713 5715 5717 5718 5720 5722 5723 5725 5726 5727 5728 5730 5731 5733 5734 5736 5737 5738 5738 5739 5740 5740 5741 5741 5741 5741 5741 5740 5739 5739 5739 5738 5739 5738 5736 5734 5733 5731 5730 5728 5727 5725
5705 5707 5708 5710 5712 5714 5715 5716 5717 5718 5719 5720 5722 5723 5724 5725 5727 5728 5728 5729 5730 5730 5730 5730 5730 5730 5730 5730 5730 5729 5728 5728 5727 5727 5727 5726 5724 5722 5721 5719 5717 5716 5714
5699 5701 5702 5703 5705 5707 5708 5709 5710 5711 5712 5713 5713 5714 5715 5717 5718 5718 5719 5719 5720 5720 5720 5720 5719 5719 5719 5719 5719 5718 5717 5717 5716 5715 5714 5714 5713 5711 5709 5708 5706 5704 5702